User: anonymous   Login
Location: Three Oaks Observatory
(31.1535°N, 83.5955°W)
Time: 06:31:02
(UTC-04:00)
Language:

XW-2B - Orbit

View from above orbital plane
View from above orbital plane
View from above satellite
View from above satellite

Ground track
Ground track

The orbit data is extracted from the following two-line orbital elements,

1 40911U 15049N   19292.06129318  .00000736  00000-0  41778-4 0  9994
2 40911  97.4715 292.4963 0015180 128.0649 306.7739 15.15912245225447
Epoch (UTC): 19 October 2019 01:28:15
Eccentricity: 0.0015180
inclination: 97.4715°
perigee height: 508 km
apogee height: 528 km
right ascension of ascending node: 292.4963°
argument of perigee: 128.0649°
revolutions per day: 15.15912245
mean anomaly at epoch: 306.7739°
orbit number at epoch: 22544

The dashed part of the orbit path shows where the satellite is in the earth's shadow,  

DLR